IRIDIUM 57 (25273 NORAD) Tracking and Keplerian Element Data

This shows tracking and keplerian element data for the satellite.

Feedback or suggestion? Click here.




ElementValue
Catalog25273
NameIRIDIUM 57
Epoch Orbit45148
Epoch Day354.22781865
Epoch Year2025
RAAN67.2493
Inclination86.3952
Eccentricity0.0002173
Argument of Perigee98.4423
Mean Anonmoly261.702
Mean Motion14.36056462
Decay Rate2.67E-06
L11 25273U 98019B 25354.22781865 .00000267 00000+0 85227-4 0 9996
L22 25273 86.3952 67.2493 0002173 98.4423 261.7020 14.36056462451485



Live tracking and technical data element details for IRIDIUM 57 (NORAD 25273). IRIDIUM 57 can be tracked NOW for your location showing map with azimuth and elevation plus other details from your city location.







IsCatalogInMostPopularTable: catalog: 25273, numindb: 532
Update: records affected: 1



GetName: 25273 IRIDIUM 57

Hit Count: updated at: Mon, 18 May 2026 09:56:17 GMT